DW3297 Weather Reports


time (UTC)temp
F
wind
direction
speed
knots
gust
knots
rain 1hr
in
rain 24hr
in
rain mn
in
humidity
%
barometer
mb
20260507172204 61 201 5.2 10.4 0.00 0.31 0.00 36 1018.2
20260507171704 60 179 4.3 15.6 0.00 0.32 0.00 36 1018.2
20260507171204 60 187 6.1 11.3 0.00 0.32 0.00 35 1018.2
20260507170704 60 194 8.7 13.0 0.00 0.32 0.00 34 1018.3
20260507170204 60 193 8.7 14.8 0.00 0.33 0.00 35 1018.3
20260507165203 60 191 7.8 13.9 0.00 0.33 0.00 35 1018.5
20260507164704 60 180 8.7 13.9 0.00 0.34 0.00 36 1018.5
20260507164204 59 192 6.1 13.9 0.00 0.34 0.00 38 1018.5
20260507163704 59 192 6.1 14.8 0.00 0.34 0.00 39 1018.6
20260507163203 59 189 7.8 14.8 0.00 0.35 0.00 38 1018.7
20260507162704 58 193 7.8 13.9 0.00 0.35 0.00 38 1018.6
20260507162204 58 180 6.1 13.0 0.00 0.35 0.00 39 1018.7
20260507161704 57 187 7.8 15.6 0.00 0.35 0.00 39 1018.7
20260507161203 57 175 7.8 13.0 0.00 0.35 0.00 39 1018.8
20260507160204 57 191 6.1 10.4 0.00 0.35 0.00 39 1018.9
20260507155703 56 183 6.1 10.4 0.00 0.35 0.00 39 1019.0
20260507155203 55 176 7.8 13.9 0.00 0.36 0.00 39 1019.0
20260507154704 55 179 5.2 8.7 0.00 0.36 0.00 41 1019.0
20260507154204 55 184 7.8 13.9 0.00 0.36 0.00 40 1019.0
20260507153705 54 176 6.1 13.0 0.00 0.36 0.00 41 1019.1
20260507152704 54 171 6.1 10.4 0.00 0.36 0.00 41 1019.0
20260507151704 53 180 5.2 10.4 0.00 0.36 0.00 41 1019.1
20260507151205 53 170 4.3 8.7 0.00 0.36 0.00 42 1019.2
20260507150704 52 183 7.0 10.4 0.00 0.36 0.00 41 1019.2
20260507150204 51 192 6.1 11.3 0.00 0.36 0.00 42 1019.2
20260507145704 51 173 6.1 12.2 0.00 0.36 0.00 42 1019.2
20260507145204 50 186 8.7 12.2 0.00 0.36 0.00 43 1019.1
20260507144704 50 190 7.0 13.0 0.00 0.36 0.00 44 1019.1
20260507144203 49 184 8.7 13.9 0.00 0.36 0.00 44 1019.2
20260507143705 49 177 5.2 13.9 0.00 0.36 0.00 44 1019.3
20260507143205 48 193 7.8 13.0 0.00 0.36 0.00 44 1019.2
20260507142704 48 185 7.0 10.4 0.00 0.36 0.00 45 1019.3
20260507142203 47 185 8.7 14.8 0.00 0.36 0.00 46 1019.1
20260507141703 47 183 7.8 13.0 0.00 0.36 0.00 46 1019.1
20260507141203 47 184 6.1 13.0 0.00 0.36 0.00 47 1019.2
20260507140704 46 177 7.0 13.9 0.00 0.36 0.00 46 1019.2
20260507140205 46 179 6.1 11.3 0.00 0.36 0.00 47 1019.2
20260507135703 46 193 5.2 12.2 0.00 0.36 0.00 48 1019.4
20260507135204 45 193 7.0 13.9 0.00 0.36 0.00 49 1019.4
20260507134704 44 188 7.0 13.9 0.00 0.36 0.00 50 1019.3
20260507134203 44 178 7.8 13.0 0.00 0.36 0.00 51 1019.2
20260507133204 43 182 6.1 10.4 0.00 0.36 0.00 51 1019.2
20260507132704 43 174 6.1 10.4 0.00 0.36 0.00 51 1019.2
20260507132204 43 172 6.1 10.4 0.00 0.36 0.00 51 1019.2
20260507131705 43 182 6.1 10.4 0.00 0.36 0.00 51 1019.2
20260507131203 43 189 6.1 10.4 0.00 0.36 0.00 51 1019.2
20260507130203 42 178 5.2 11.3 0.00 0.36 0.00 52 1019.2
20260507125705 41 185 7.8 13.0 0.00 0.36 0.00 53 1019.1
20260507125204 41 174 7.0 11.3 0.00 0.36 0.00 53 1019.0
20260507124205 40 180 7.0 10.4 0.00 0.36 0.00 55 1018.9
20260507123705 39 179 7.0 10.4 0.00 0.36 0.00 56 1018.9
20260507123204 39 175 6.1 8.7 0.00 0.36 0.00 56 1018.9
20260507122705 38 175 5.2 11.3 0.00 0.36 0.00 57 1018.8
20260507122203 38 184 6.1 10.4 0.00 0.36 0.00 57 1018.8
20260507121704 38 177 5.2 8.7 0.00 0.36 0.00 57 1018.8
20260507121204 38 183 4.3 8.7 0.00 0.36 0.00 57 1018.8
20260507120703 38 176 5.2 8.7 0.00 0.36 0.00 57 1018.8
20260507120203 38 180 2.6 5.2 0.00 0.36 0.00 57 1018.8
20260507115204 38 172 4.3 8.7 0.00 0.36 0.00 57 1018.9
20260507114703 38 176 5.2 10.4 0.00 0.36 0.00 57 1018.8
20260507114202 38 168 6.1 10.4 0.00 0.36 0.00 57 1018.7
20260507113202 38 176 5.2 7.8 0.00 0.36 0.00 57 1018.7
20260507112703 38 172 5.2 7.8 0.00 0.36 0.00 57 1018.6
20260507112203 38 175 6.1 10.4 0.00 0.36 0.00 57 1018.6
20260507111703 38 182 5.2 10.4 0.00 0.36 0.00 57 1018.6
20260507111203 38 180 6.1 10.4 0.00 0.36 0.00 58 1018.6
20260507110703 37 171 5.2 10.4 0.00 0.36 0.00 59 1018.6
20260507110202 37 174 6.1 10.4 0.00 0.36 0.00 59 1018.7
20260507105703 37 177 7.8 11.3 0.00 0.36 0.00 59 1018.7
20260507105203 37 175 6.1 10.4 0.00 0.36 0.00 60 1018.7
20260507104702 37 184 5.2 7.8 0.00 0.36 0.00 60 1018.7
20260507104202 37 174 6.1 7.8 0.00 0.36 0.00 60 1018.7
20260507103704 37 173 5.2 8.7 0.00 0.36 0.00 61 1018.7
20260507103204 37 171 4.3 7.0 0.00 0.36 0.00 61 1018.8
20260507102703 37 178 4.3 8.7 0.00 0.36 0.00 61 1018.9
20260507102204 37 177 7.0 10.4 0.00 0.36 0.00 61 1018.9
20260507101703 37 176 5.2 10.4 0.00 0.36 0.00 61 1018.9
20260507101203 37 178 5.2 7.8 0.00 0.36 0.00 61 1019.0
20260507100702 37 166 2.6 7.8 0.00 0.36 0.00 62 1019.1
20260507100203 37 171 4.3 7.0 0.00 0.36 0.00 63 1019.0
20260507095703 36 173 5.2 7.8 0.00 0.36 0.00 65 1019.0
20260507095202 36 170 4.3 7.0 0.00 0.36 0.00 65 1019.0
20260507094704 36 169 5.2 10.4 0.00 0.36 0.00 66 1019.1
20260507094204 36 174 5.2 7.0 0.00 0.36 0.00 66 1019.1
20260507093702 36 168 5.2 8.7 0.00 0.36 0.00 66 1019.2
20260507093203 36 179 7.0 11.3 0.00 0.36 0.00 67 1019.1
20260507092702 35 175 5.2 8.7 0.00 0.36 0.00 68 1019.2
20260507091703 35 176 4.3 7.0 0.00 0.36 0.00 69 1019.2
20260507090703 35 166 4.3 7.0 0.00 0.36 0.00 70 1019.1
20260507090203 35 167 5.2 7.8 0.00 0.36 0.00 70 1019.1
20260507085703 35 173 5.2 7.8 0.00 0.36 0.00 71 1019.2
20260507085203 35 167 4.3 7.8 0.00 0.36 0.00 72 1019.1
20260507084703 35 174 5.2 7.8 0.00 0.36 0.00 73 1019.1
20260507084202 35 176 5.2 10.4 0.00 0.36 0.00 74 1019.2
20260507083702 34 175 5.2 8.7 0.00 0.36 0.00 75 1019.2
20260507083204 34 177 5.2 8.7 0.00 0.36 0.00 76 1019.3
20260507082204 34 164 4.3 7.8 0.00 0.36 0.00 76 1019.4
20260507081704 34 181 5.2 7.0 0.00 0.36 0.00 76 1019.4
20260507081202 34 170 4.3 7.8 0.00 0.36 0.00 77 1019.4
20260507080704 34 174 5.2 11.3 0.00 0.36 0.00 77 1019.5
20260507080203 34 171 6.1 8.7 0.00 0.36 0.00 78 1019.5
20260507075704 34 177 5.2 10.4 0.00 0.36 0.00 79 1019.7
20260507075203 34 172 5.2 10.4 0.00 0.36 0.00 79 1019.7
20260507074704 34 167 5.2 10.4 0.00 0.36 0.00 80 1019.8
20260507074203 34 177 6.1 7.8 0.00 0.36 0.00 80 1019.8
20260507072702 34 184 6.1 8.7 0.00 0.37 0.00 80 1019.9
20260507072203 34 176 5.2 7.8 0.00 0.37 0.00 81 1019.9
20260507071703 34 180 6.1 8.7 0.00 0.37 0.00 81 1019.9
20260507071204 34 171 5.2 7.8 0.00 0.37 0.00 81 1019.9
20260507070703 34 170 6.1 10.4 0.00 0.37 0.00 81 1019.9
20260507070205 34 172 6.1 8.7 0.00 0.37 0.00 81 1020.0
20260507065703 34 178 6.1 10.4 0.00 0.37 0.00 82 1020.0
20260507065204 34 185 5.2 10.4 0.00 0.37 0.00 82 1020.0
20260507064703 34 176 5.2 10.4 0.00 0.37 0.00 82 1019.9
20260507064204 34 173 4.3 7.8 0.00 0.37 0.00 82 1020.0
20260507063703 34 177 5.2 8.7 0.00 0.37 0.00 82 1020.0
20260507063204 34 176 6.1 8.7 0.00 0.37 0.00 82 1020.0
20260507062703 34 178 5.2 10.4 0.00 0.37 0.00 82 1020.0
20260507062204 34 183 5.2 8.7 0.00 0.37 0.00 82 1020.0
20260507061704 34 182 5.2 7.0 0.00 0.37 0.00 82 1020.0
20260507061204 34 183 5.2 8.7 0.00 0.37 0.00 83 1020.1
20260507060710 34 177 5.2 7.8 0.00 0.37 0.00 83 1020.0
20260507060203 34 179 4.3 7.0 0.00 0.37 0.00 83 1020.0
20260507055704 34 174 4.3 7.0 0.00 0.37 0.37 83 1020.0
20260507055203 34 182 4.3 6.1 0.00 0.37 0.37 83 1020.1
20260507054703 34 182 4.3 7.0 0.00 0.37 0.37 83 1020.1
20260507054203 34 181 4.3 6.1 0.00 0.37 0.37 83 1020.2
20260507053703 34 180 4.3 6.1 0.00 0.37 0.37 82 1020.2
20260507052704 34 182 2.6 5.2 0.00 0.37 0.37 82 1020.3
20260507052204 34 181 1.7 2.6 0.00 0.37 0.37 82 1020.3
20260507051703 35 183 2.6 6.1 0.00 0.37 0.37 82 1020.2
20260507051203 35 160 3.5 6.1 0.00 0.37 0.37 82 1020.2
20260507050703 35 170 3.5 7.0 0.00 0.37 0.37 82 1020.3
20260507050202 35 165 3.5 7.0 0.00 0.37 0.37 82 1020.3
20260507044703 35 179 3.5 8.7 0.00 0.37 0.37 82 1020.2
20260507044203 35 178 5.2 10.4 0.00 0.37 0.37 82 1020.2
20260507043702 35 177 4.3 7.0 0.00 0.37 0.37 82 1020.2
20260507042703 35 196 0.0 2.6 0.00 0.37 0.37 82 1020.4
20260507042204 35 191 1.7 4.3 0.00 0.37 0.37 82 1020.4
20260507041702 35 207 2.6 5.2 0.00 0.37 0.37 82 1020.3
20260507041203 35 198 2.6 7.0 0.00 0.37 0.37 82 1020.3
20260507040703 35 167 2.6 7.8 0.00 0.37 0.37 83 1020.3
20260507040203 35 188 4.3 7.0 0.00 0.37 0.37 83 1020.3
20260507035704 35 170 3.5 7.8 0.00 0.37 0.37 83 1020.2
20260507035203 35 164 1.7 5.2 0.00 0.37 0.37 83 1020.2
20260507034703 35 174 2.6 5.2 0.00 0.37 0.37 83 1020.2
20260507034203 34 169 2.6 7.0 0.00 0.37 0.37 83 1020.1
20260507033704 34 145 1.7 5.2 0.00 0.37 0.37 82 1020.2
20260507033204 34 124 1.7 2.6 0.00 0.37 0.37 82 1020.1
20260507032204 34 124 0.9 2.6 0.00 0.37 0.37 81 1020.1
20260507031203 35 124 0.9 2.6 0.00 0.37 0.37 80 1020.0
20260507030703 35 124 1.7 4.3 0.00 0.37 0.37 80 1020.1
20260507030204 35 145 1.7 5.2 0.00 0.37 0.37 79 1020.0
20260507025703 35 145 1.7 4.3 0.00 0.37 0.37 79 1020.0
20260507025203 35 145 2.6 4.3 0.00 0.37 0.37 79 1020.0
20260507024704 36 143 2.6 4.3 0.00 0.37 0.37 79 1020.0
20260507023703 36 143 2.6 4.3 0.00 0.37 0.37 78 1019.9
20260507023204 36 141 1.7 4.3 0.00 0.37 0.37 78 1019.9
20260507022704 36 141 1.7 2.6 0.00 0.37 0.37 77 1019.9
20260507022203 36 143 1.7 2.6 0.00 0.37 0.37 77 1019.9
20260507021703 36 143 1.7 2.6 0.00 0.37 0.37 76 1019.9
20260507021204 37 144 2.6 4.3 0.00 0.37 0.37 76 1019.9
20260507020203 37 146 2.6 5.2 0.00 0.37 0.37 75 1019.8
20260507015203 38 156 3.5 7.0 0.00 0.37 0.37 73 1019.9
20260507014704 38 150 2.6 6.1 0.00 0.37 0.37 72 1020.0
20260507014204 38 150 3.5 6.1 0.00 0.37 0.37 71 1020.0
20260507013704 38 156 2.6 7.8 0.00 0.37 0.37 71 1020.1
20260507013205 39 143 3.5 6.1 0.00 0.37 0.37 70 1020.1
20260507012704 39 159 2.6 7.8 0.00 0.37 0.37 69 1020.1
20260507012205 39 166 4.3 6.1 0.00 0.37 0.37 69 1020.2
20260507011704 39 130 2.6 6.1 0.00 0.37 0.37 68 1020.2
20260507011204 40 169 2.6 6.1 0.00 0.37 0.37 68 1020.2
20260507010704 40 170 3.5 7.0 0.00 0.37 0.37 67 1020.3
20260507010205 40 162 2.6 4.3 0.00 0.37 0.37 68 1020.3
20260507005705 40 174 3.5 6.1 0.00 0.37 0.37 68 1020.3
20260507005203 40 137 2.6 4.3 0.00 0.37 0.37 69 1020.3
20260507004704 40 126 2.6 4.3 0.00 0.37 0.37 68 1020.3
20260507004204 40 143 1.7 6.1 0.00 0.37 0.37 67 1020.4
20260507003704 40 192 4.3 7.0 0.00 0.37 0.37 68 1020.4
20260507003203 40 179 2.6 6.1 0.00 0.37 0.37 68 1020.4
20260507002704 40 175 4.3 6.1 0.00 0.37 0.37 69 1020.4
20260507002204 40 171 2.6 6.1 0.00 0.37 0.37 71 1020.5
20260507001705 39 150 2.6 5.2 0.00 0.37 0.37 73 1020.5
20260507001205 39 111 1.7 5.2 0.00 0.37 0.37 73 1020.5
20260507000704 39 156 3.5 6.1 0.00 0.37 0.37 72 1020.5
20260506235703 40 164 3.5 6.1 0.00 0.37 0.37 71 1020.5
20260506235204 39 191 2.6 4.3 0.00 0.37 0.37 71 1020.5
20260506234704 39 165 3.5 7.8 0.00 0.37 0.37 71 1020.5
20260506234204 39 129 2.6 10.4 0.00 0.37 0.37 73 1020.5
20260506233704 39 121 1.7 4.3 0.00 0.37 0.37 73 1020.5
20260506233205 39 163 4.3 7.8 0.00 0.37 0.37 71 1020.6
20260506232706 39 162 4.3 6.1 0.00 0.37 0.37 71 1020.6
20260506232204 39 147 1.7 4.3 0.00 0.37 0.37 71 1020.6
20260506231204 39 169 4.3 6.1 0.00 0.37 0.37 72 1020.6
20260506230704 39 191 2.6 7.8 0.00 0.37 0.37 73 1020.7
20260506230204 39 202 0.9 6.1 0.00 0.37 0.37 74 1020.7
20260506225704 38 184 3.5 10.4 0.00 0.37 0.37 74 1020.7
20260506224704 38 154 2.6 6.1 0.00 0.40 0.37 75 1020.8
20260506224204 38 157 2.6 5.2 0.00 0.41 0.37 77 1020.9
20260506223203 37 137 1.7 2.6 0.00 0.43 0.37 79 1021.0
20260506222205 37 137 0.9 2.6 0.01 0.44 0.37 79 1021.1
20260506221204 36 146 1.7 4.3 0.01 0.46 0.37 79 1021.2
20260506220203 37 160 0.9 2.6 0.01 0.49 0.37 78 1021.3
20260506215704 37 151 0.9 2.6 0.01 0.49 0.37 79 1021.3
20260506214703 37 151 0.0 2.6 0.01 0.50 0.37 80 1021.3
20260506214205 37 143 0.9 2.6 0.02 0.51 0.37 80 1021.3
20260506213704 36 160 1.7 5.2 0.02 0.51 0.37 80 1021.4
20260506213204 36 126 1.7 5.2 0.02 0.51 0.37 81 1021.5
20260506212704 36 37 0.9 2.6 0.01 0.50 0.36 81 1021.6
20260506211703 36 37 0.9 1.7 0.02 0.51 0.36 82 1021.6
20260506211204 36 37 0.0 1.7 0.02 0.53 0.36 82 1021.6
20260506210703 36 38 0.0 0.0 0.03 0.53 0.36 82 1021.7
20260506210207 35 38 0.0 0.9 0.03 0.54 0.36 82 1021.7
20260506205204 35 39 0.0 2.6 0.05 0.54 0.36 82 1021.9
20260506204705 36 39 1.7 2.6 0.06 0.54 0.36 83 1021.9
20260506204204 36 39 0.9 2.6 0.06 0.53 0.35 83 1021.9
20260506203704 35 36 0.9 2.6 0.06 0.53 0.35 83 1021.9
20260506203203 35 29 0.9 2.6 0.07 0.53 0.35 83 1021.9
20260506202704 36 29 1.7 2.6 0.08 0.53 0.35 84 1022.0
20260506202204 35 2 1.7 2.6 0.08 0.52 0.34 84 1022.0
20260506201705 35 1 2.6 4.3 0.09 0.52 0.34 84 1022.0
20260506201204 35 10 2.6 5.2 0.10 0.52 0.34 85 1022.0
20260506200705 35 29 0.9 2.6 0.10 0.51 0.33 86 1022.1
20260506200204 35 29 2.6 4.3 0.12 0.51 0.33 86 1022.1
20260506195703 35 329 2.6 4.3 0.14 0.51 0.32 86 1022.2
20260506195205 35 17 2.6 4.3 0.15 0.51 0.32 86 1022.2
20260506194704 34 6 1.7 5.2 0.15 0.50 0.31 87 1022.1
20260506194204 34 354 3.5 6.1 0.15 0.49 0.29 87 1022.2
20260506193703 34 33 2.6 5.2 0.16 0.49 0.29 87 1022.3
20260506193203 33 15 3.5 7.0 0.16 0.47 0.28 87 1022.3
20260506192705 34 340 3.5 5.2 0.15 0.46 0.27 87 1022.3
20260506192206 34 6 4.3 6.1 0.15 0.45 0.26 88 1022.3
20260506191704 34 22 3.5 5.2 0.14 0.44 0.25 87 1022.4
20260506191207 34 6 3.5 7.8 0.14 0.43 0.24 88 1022.4
20260506190704 34 10 4.3 7.8 0.12 0.42 0.23 88 1022.4
20260506190203 35 28 3.5 6.1 0.11 0.40 0.20 88 1022.3
20260506185704 35 31 2.6 5.2 0.09 0.37 0.18 88 1022.4
20260506185204 34 50 4.3 7.0 0.08 0.36 0.17 88 1022.4
20260506184705 33 34 4.3 8.7 0.08 0.35 0.16 88 1022.4
20260506184204 33 7 5.2 7.8 0.07 0.34 0.15 88 1022.5
20260506183704 33 12 4.3 7.0 0.07 0.33 0.14 88 1022.6
20260506183203 33 357 3.5 6.1 0.06 0.32 0.12 88 1022.6
20260506182706 33 21 2.6 6.1 0.06 0.32 0.12 89 1022.6
20260506182204 33 21 3.5 7.0 0.05 0.31 0.11 89 1022.6
20260506181704 32 35 5.2 8.7 0.06 0.31 0.11 89 1022.6
20260506181204 32 30 4.3 7.0 0.05 0.29 0.10 89 1022.6
20260506180704 32 46 6.1 10.4 0.05 0.29 0.10 89 1022.5
20260506180203 31 44 4.3 7.8 0.05 0.28 0.09 89 1022.5
20260506175703 31 26 4.3 10.4 0.05 0.28 0.09 89 1022.4
20260506175205 31 14 4.3 8.7 0.05 0.28 0.09 89 1022.4
20260506174704 31 7 5.2 7.8 0.05 0.27 0.08 89 1022.4
20260506173705 31 30 6.1 10.4 0.03 0.26 0.07 89 1022.4
20260506173204 31 22 5.2 10.4 0.05 0.26 0.07 89 1022.3
20260506172705 32 35 4.3 10.4 0.05 0.26 0.07 89 1022.3